Погода в Лас-Вегасе

США     36°14′01″N   115°14′29″W
темп.,
°C
ветер,
м/с
пор.,
м/с
влажн.,
%
обл.,
%
осадки,
мм/ч
давл.,
гПа
погр.,
м
20 января, ср
ср2001:00+8ссз565779 0.0 102397
04:00+5зсз126162 0.0 102324
07:00+8ссз334982 0.0 102459
10:00+11юв214562 0.0 1024638
13:00+13ююв223960 0.0 1020824
16:00+13ююв224030 0.0 1018694
19:00+8зсз12570 0.0 101926
22:00+7сз12640 0.0 101922
21 января, чт
чт2101:00+6зсз12670 0.0 101722
04:00+5сз12730 0.0 101722
07:00+4всв01750 0.0 101722
10:00+13вюв21430 0.0 1017378
13:00+15вюв21370 0.0 1014828
16:00+16юв11350 0.0 1012712
19:00+9юз01560 0.0 101323
22:00+7в02666 0.0 101323
22 января, пт
пт2201:00+7в126918 0.0 101322
04:00+7всв237159 0.0 101138
07:00+6всв2378100 0.0 101127
10:00+12юв355195 0.0 1010689
13:00+16ююз8122336 0.0 10061935
16:00+15юз11152546 0.0 10042138
19:00+10юз6124032 0.0 1005335
22:00+7ююз345416 0.0 100799
23 января, сб
сб2301:00+5зюз34620 0.0 100786
04:00+5з45582 0.0 100870
07:00+2зсз126481 0.0 101028
10:00+9с022978 0.0 1011960
13:00+11юв122399 0.0 10092279
16:00+11вюв032399 0.0 10082316
19:00+7юв5657100 0.1 1010403
22:00+5зсз0168100 0.1 101149
24 января, вс
вс2401:00+3сз126093 0.0 101142
04:00+3сз454358 0.0 101272
07:00+4сз784345 0.0 1013128
10:00+9ссз672923 0.0 1013775
13:00+11ссз33220 0.0 10111636
16:00+11ю22210 0.0 10091736
19:00+5юз22361 0.0 101048
22:00+5юв123651 0.0 101047